Weather in Naiman

Uzbekistan     40°36′08″N   72°30′55″E
temp.,
°C
wind,
m/s
gust,
m/s
humid.,
%
clouds,
%
prec.,
mm/h
press.,
hPa
HPBL,
m
8 may, sat
sat823:00+19se22639 1.1 101620
02:00+18se22655 0.4 101519
05:00+18sse226387 0.4 101514
08:00+22nw11485 0.0 1015509
11:00+25nw32415 0.1 10141737
14:00+27nw333660 0.0 10131956
17:00+26wsw2238100 0.0 10121969
20:00+20sse33536 0.1 101336
9 may, sun
sun923:00+20sse334638 0.3 101319
02:00+19se3347100 0.2 101217
05:00+18sse334898 0.2 101221
08:00+24w113996 0.0 1012379
11:00+26nw333611 0.0 10111332
14:00+28wnw4333100 0.0 10102324
17:00+27w333584 0.0 10101473
20:00+23sse224781 0.1 101111
10 may, mon
mon1023:00+20se01555 0.1 101211
02:00+18se336046 0.0 101232
05:00+17se226383 0.0 101119
08:00+21w2252100 0.0 1011507
11:00+25w3344100 0.0 10091193
14:00+27w3339100 0.0 10071556
17:00+26w333695 0.0 10061546
20:00+21wsw51148100 0.1 1009362
11 may, tue
tue1123:00+19ese346379 0.7 101081
02:00+18e226595 0.0 101018
05:00+18se2265100 0.1 101118
08:00+18nw2451100 0.3 1013422
11:00+20ssw2247100 1.9 10131048
14:00+23sw2336100 0.1 10121738
17:00+23w4432100 0.3 10121347
20:00+18sse323149 0.0 101417
12 may, wed
wed1223:00+17se33355 0.0 101416
02:00+15se334836 0.0 101430
05:00+15se334496 0.0 101519
08:00+20ene113261 0.0 1015595
11:00+23nw322896 0.0 10131877
14:00+24nw322582 0.0 10112261
17:00+24wnw122411 0.0 10102159
20:00+20sse21314 0.0 101111